Regional Weather Roundup
Issued by NWS

Home | Current Version | Previous Version | Text Only | Print | Product List | Glossary Off
Versions: 1 2 3 4 5 6 7 8 9 10 11 12 13 14 15 16 17 18 19 20 21 22 23 24 25 26 27 28 29 30 31 32 33 34 35 36 37 38 39 40 41 42 43 44 45 46 47 48 49 50

000
ASUS45 KCYS 281510
RWRWY

WYOMING REGIONAL WEATHER ROUNDUP
NATIONAL WEATHER SERVICE CHEYENNE WY
800 AM MST SUN DEC 28 2014

NOTE:  "FAIR" INDICATES FEW OR NO CLOUDS BELOW 12,000 FEET
WITH NO SIGNIFICANT WEATHER AND/OR OBSTRUCTIONS TO VISIBILITY.

WYZ001-281600-
YELLOWSTONE NATIONAL PARK

CITY           SKY/WX    TMP DP  RH WIND       PRES   REMARKS
LK YELLOWSTONE   N/A     11   6  81 VRB5      29.83F WCI   3
W YELLOWSTONE  NOT AVBL

$$
WYZ002>013-054>058-071-098>099-281600-
NORTHERN WYOMING

CITY           SKY/WX    TMP DP  RH WIND       PRES   REMARKS
JACKSON        LGT SNOW  16  16 100 SW9       29.89F VSB 1   WCI   4
CODY           FAIR      27   9  46 W17G32    29.79S WCI  14
GREYBULL       CLOUDY     3   0  87 SE3       29.91F
WORLAND        FAIR      -2  -8  76 S9        29.90R WCI -18
SHERIDAN       CLOUDY    13   6  74 SW3       29.85R
BUFFALO        CLOUDY    18   6  59 W8        29.81R WCI   8
GILLETTE       CLOUDY    13   8  81 SW3       29.84R
HULETT           N/A    N/A N/A N/A MISG        N/A
NEWCASTLE      FAIR      10   7  85 CALM      29.90S

$$
WYZ014>020-022>026-101>103-281600-
CENTRAL WYOMING

CITY           SKY/WX    TMP DP  RH WIND       PRES   REMARKS
BIG PINEY      MOCLDY    -5 -11  75 CALM      29.93S
PINEDALE       LGT SNOW   5   1  85 CALM      29.92S
DUBOIS         NOT AVBL
LANDER         FAIR       5  -2  72 NW6       29.84S WCI  -6
RIVERTON       FAIR      11   0  61 W14       29.84F WCI  -5
CASPER         FAIR      20  11  68 SW22G32   29.84F WCI   3
DOUGLAS        CLOUDY    25  14  63 W14       29.86S WCI  13

$$
WYZ021-027>030-104>119-281600-
SOUTHERN WYOMING

CITY           SKY/WX    TMP DP  RH WIND       PRES   REMARKS
EVANSTON       LGT SNOW  17  14  88 SW15      29.95R FOG     WCI   2
FORT BRIDGER   CLOUDY    21  15  79 SW23G29   29.94S WCI   4
ROCK SPRINGS   MOCLDY    14  10  84 SE7       29.93S WCI   4
DIXON          CLOUDY    20  10  64 SW10      30.02F WCI   8
RAWLINS        CLOUDY    17  10  74 SW29G40   29.88S BLWGSNOWWCI  -2
SARATOGA       CLOUDY    19  10  68 S12       29.92F WCI   7
LARAMIE        CLOUDY    16   6  65 SW25G35   29.86R WCI  -3
CHEYENNE       CLOUDY    24   4  42 VRB7      29.87R WCI  16
TORRINGTON     CLOUDY    13   6  74 SE5       29.91S WCI   5
PINE BLUFFS    CLOUDY    18   9  68 S8        29.92S WCI   7

$$



USA.gov is the U.S. government's official web portal to all federal, state and local government web resources and services.